Location: Albany
(35.0000°S, 118.0000°E)
Time: 15:42:55
(UTC-05:00)

Amateur Radio Satellites - All Passes

Search period start: 27 November 2014 15:12
Search period end: 28 November 2014 15:12
Location: Albany, 35.0000°S, 118.0000°E

Satellite Date Start Highest point End Downlink Frequencies (MHz)
Time Altitude Azimuth
AO-7 27 Nov 15:12:49 15:20:54 53° 282° (WNW) 15:29:04 29.400- 29.500
O/OREOS (USA 219) 27 Nov 15:15:26 15:19:49 42° 285° (WNW) 15:24:08 437.305
Cubesat XI-IV 27 Nov 15:21:09 15:23:54 14° 117° (ESE) 15:26:39 437.490
CUTE-I 27 Nov 15:59:43 16:04:26 33° 111° (ESE) 16:09:13 437.470
PHONESAT 2.4 27 Nov 16:02:26 16:05:51 34° 175° (S) 16:09:16 2401.200-2431.200
VERMONT LUNAR 27 Nov 16:06:54 16:10:19 38° 171° (S) 16:13:43 437.305
JAS-2 27 Nov 16:31:23 16:36:09 32° 278° (W) 16:40:49 435.910
MOZHAYETS 4 27 Nov 16:38:04 16:42:28 44° 253° (WSW) 16:46:49
RS-15 27 Nov 16:46:13 16:56:59 35° 223° (SW) 17:07:52 29.354- 29.394
CUBESAT XI-V 27 Nov 16:48:33 16:51:06 14° 88° (E) 16:53:38 437.345
Cubesat XI-IV 27 Nov 16:58:03 17:03:21 66° 282° (WNW) 17:08:43 437.490
PRISM 27 Nov 17:13:04 17:17:16 76° 78° (ENE) 17:21:27 437.425
GONETS M04 27 Nov 17:16:41 17:24:10 30° 107° (ESE) 17:31:36
PCSat 27 Nov 17:30:07 17:35:06 39° 70° (ENE) 17:40:08 145.827
CUTE-I 27 Nov 17:40:02 17:44:27 27° 276° (W) 17:48:57 437.470
PHONESAT 2.4 27 Nov 17:41:14 17:44:57 78° 159° (SSE) 17:48:38 2401.200-2431.200
HO-68 27 Nov 17:44:36 17:49:07 18° 121° (ESE) 17:53:39 435.675
VERMONT LUNAR 27 Nov 17:45:21 17:48:58 73° 334° (NNW) 17:52:33 437.305
BEESAT 3 27 Nov 17:49:49 17:53:18 28° 67° (ENE) 17:56:46 437.485
STRAND 1 27 Nov 17:58:28 18:03:42 77° 77° (ENE) 18:08:52 437.568
BEESAT 2 27 Nov 18:06:22 18:10:10 40° 66° (ENE) 18:13:57 435.950
GOMX 1 27 Nov 18:10:30 18:11:07 10° 119° (ESE) 18:11:44 467.674
AIST 1 27 Nov 18:19:15 18:23:31 70° 85° (E) 18:27:50
CUBESAT XI-V 27 Nov 18:24:12 18:28:45 48° 254° (WSW) 18:33:16 437.345
CANX-2 27 Nov 18:28:41 18:31:56 21° 111° (ESE) 18:35:11 2200.000
COMPASS 1 27 Nov 18:29:08 18:31:16 14° 113° (ESE) 18:33:25 437.405
BRITE-PL 27 Nov 18:43:45 18:48:01 32° 111° (ESE) 18:52:39 437.365/2234.400
AIST 2 27 Nov 18:48:33 18:52:36 58° 64° (ENE) 18:56:38 435.215
DOVE 4 27 Nov 18:54:29 18:58:18 23° 113° (ESE) 19:02:19 437.250
CUTE 1.7 + AOD 2 27 Nov 19:02:01 19:06:10 46° 106° (ESE) 19:10:22 437.475
RS-15 27 Nov 19:09:16 19:15:05 14° 190° (S) 19:20:50 29.354- 29.394
GONETS M04 27 Nov 19:12:51 19:21:13 52° 270° (W) 19:29:35
PCSat 27 Nov 19:14:09 19:18:36 26° 234° (SW) 19:23:05 145.827
CINEMA 3 27 Nov 19:17:08 19:20:58 24° 112° (ESE) 19:24:56 145.822/145.860
PHONESAT 2.4 27 Nov 19:20:37 19:23:28 21° 324° (NW) 19:26:18 2401.200-2431.200
VERMONT LUNAR 27 Nov 19:25:18 19:27:00 13° 321° (NW) 19:28:42 437.305
BEESAT 3 27 Nov 19:28:23 19:31:29 21° 233° (SW) 19:34:35 437.485
HO-68 27 Nov 19:28:49 19:35:58 78° 285° (WNW) 19:43:12 435.675
SEEDS 27 Nov 19:32:30 19:36:50 88° 282° (WNW) 19:41:12 437.485
UKube-1 27 Nov 19:35:35 19:39:26 32° 109° (ESE) 19:43:20 .
STRAND 1 27 Nov 19:40:27 19:42:09 12° 242° (WSW) 19:43:51 437.568
DELFI C3 27 Nov 19:42:03 19:45:48 34° 108° (ESE) 19:49:35 145.870
FUNcube-1 27 Nov 19:42:14 19:45:28 19° 112° (ESE) 19:48:45 145.935
GOMX 1 27 Nov 19:43:28 19:48:18 84° 282° (WNW) 19:53:34 467.674
AISAT 27 Nov 19:44:26 19:46:18 13° 115° (ESE) 19:48:11 437.250
Oscar 11 27 Nov 19:45:07 19:49:19 46° 106° (ESE) 19:53:33 145.826/435.025
AAUSAT CUBESAT 2 27 Nov 19:45:38 19:49:54 83° 282° (WNW) 19:54:13 437.432
BEESAT 2 27 Nov 19:46:02 19:48:36 16° 230° (SW) 19:51:09 435.950
50 SAT 27 Nov 19:52:04 19:52:40 10° 115° (ESE) 19:53:16 437.505
COMPASS 1 27 Nov 20:02:28 20:06:34 45° 279° (W) 20:10:43 437.405
CANX-2 27 Nov 20:03:53 20:07:39 29° 277° (W) 20:11:29 2200.000
UWE-3 27 Nov 20:11:36 20:16:03 48° 106° (ESE) 20:20:37 435.000/436.395/437.385
DX 1 27 Nov 20:12:25 20:16:47 90° 104° (ESE) 20:21:13 434.975-435.025
HUMSAT D 27 Nov 20:12:42 20:16:11 24° 110° (ESE) 20:19:44 437.325/437.525
CUBEBUG 2 27 Nov 20:15:05 20:19:41 62° 105° (ESE) 20:24:28 437.445
BRITE-PL 27 Nov 20:22:39 20:26:32 24° 273° (W) 20:30:42 437.365/2234.400
AIST 2 27 Nov 20:29:45 20:31:33 13° 228° (SW) 20:33:21 435.215
DOVE 4 27 Nov 20:31:24 20:35:47 35° 276° (W) 20:40:28 437.250
CUTE 1.7 + AOD 2 27 Nov 20:40:23 20:42:18 13° 272° (W) 20:44:15 437.475
ZACube-1 27 Nov 20:42:19 20:46:53 89° 281° (WNW) 20:51:35 437.345
ANTELSAT 27 Nov 20:45:51 20:48:28 15° 88° (E) 20:51:01 437.575/2403.000
VELOX 1 27 Nov 20:50:30 20:54:55 70° 105° (ESE) 20:59:24 145.980
CINEMA 3 27 Nov 20:53:40 20:57:56 32° 276° (W) 21:02:24 145.822/145.860
ESTCUBE 1 27 Nov 20:56:37 21:00:29 28° 110° (ESE) 21:04:23 437.505/2401.250
ISS 27 Nov 21:05:43 21:09:03 64° 45° (NE) 21:12:26 145.825
NANOSAT C BR1 27 Nov 21:07:17 21:10:11 17° 86° (E) 21:13:04 145.865
UKube-1 27 Nov 21:12:32 21:15:37 19° 275° (W) 21:18:44 .
QB50P1 27 Nov 21:16:59 21:20:27 23° 85° (E) 21:23:52 145.935-145.965
FUNcube-1 27 Nov 21:17:19 21:21:30 36° 277° (W) 21:25:48 145.935
BUGSAT 1 27 Nov 21:17:44 21:20:48 19° 85° (E) 21:23:50 437.445
AISAT 27 Nov 21:18:03 21:22:24 54° 280° (W) 21:26:51 437.250
DELFI C3 27 Nov 21:18:37 21:21:10 16° 274° (W) 21:23:45 145.870
50 SAT 27 Nov 21:23:16 21:27:24 59° 280° (W) 21:31:37 437.505
Oscar 11 27 Nov 21:23:39 21:25:41 13° 272° (W) 21:27:44 145.826/435.025
CUBEBUG 1 27 Nov 21:23:48 21:28:02 55° 106° (ESE) 21:32:22 437.445
RS-15 27 Nov 21:26:26 21:34:47 20° 152° (SSE) 21:42:52 29.354- 29.394
TIGRISAT 27 Nov 21:37:11 21:41:43 60° 80° (E) 21:46:04 435.000
CUSAT 1 27 Nov 21:39:54 21:43:59 19° 115° (ESE) 21:47:21 437.405
POPSAT HIP 1 27 Nov 21:41:28 21:45:40 44° 81° (E) 21:49:48 437.405
HUMSAT D 27 Nov 21:48:14 21:51:51 25° 276° (W) 21:55:33 437.325/437.525
UWE-3 27 Nov 21:50:22 21:52:50 14° 272° (W) 21:55:20 435.000/436.395/437.385
JUGNU 27 Nov 21:50:51 21:54:17 16° 8° (N) 21:57:42 437.505
UNISAT 6 27 Nov 21:51:54 21:56:31 90° 257° (WSW) 22:00:56 437.425
CUBEBUG 2 27 Nov 21:55:26 21:56:47 11° 270° (W) 21:58:09 437.445
SRMSAT 27 Nov 22:07:14 22:08:36 11° 15° (NNE) 22:09:58 437.500
DANDE 27 Nov 22:13:16 22:19:03 36° 109° (ESE) 22:23:23 436.750
POLYITAN 1 27 Nov 22:16:08 22:20:32 68° 256° (WSW) 22:24:50 437.675
QB50P2 27 Nov 22:17:22 22:21:44 66° 255° (WSW) 22:26:01 145.880/145.840
ANTELSAT 27 Nov 22:21:09 22:25:28 41° 252° (WSW) 22:29:37 437.575/2403.000
DUCHIFAT 1 27 Nov 22:22:07 22:26:26 59° 255° (WSW) 22:30:41 145.980
M-CUBED/EXP-1 PRIME 27 Nov 22:22:19 22:24:17 13° 116° (ESE) 22:26:11 437.505
TISAT 1 27 Nov 22:23:50 22:28:02 65° 105° (ESE) 22:32:19 437.305
MaSat-1 27 Nov 22:28:52 22:31:46 19° 122° (ESE) 22:34:35 437.345
ITUPSAT 1 27 Nov 22:32:11 22:33:35 11° 117° (ESE) 22:34:59 437.325
ESTCUBE 1 27 Nov 22:33:47 22:37:18 22° 275° (W) 22:40:53 437.505/2401.250
SPROUT 27 Nov 22:39:46 22:44:05 87° 103° (ESE) 22:48:30 437.525
SWISSCUBE 27 Nov 22:40:44 22:43:34 16° 115° (ESE) 22:46:26 437.505
NANOSAT C BR1 27 Nov 22:42:10 22:46:08 34° 252° (WSW) 22:50:02 145.865
ISS 27 Nov 22:43:50 22:46:00 16° 209° (SSW) 22:48:11 145.825
BUGSAT 1 27 Nov 22:52:29 22:56:18 31° 251° (WSW) 23:00:06 437.445
QB50P1 27 Nov 22:52:37 22:56:16 26° 250° (WSW) 22:59:52 145.935-145.965
CUBEBUG 1 27 Nov 23:03:53 23:04:44 11° 271° (W) 23:05:35 437.445
BEESAT 27 Nov 23:09:52 23:13:59 30° 110° (ESE) 23:18:09 436.000
TIGRISAT 27 Nov 23:16:21 23:17:51 12° 244° (WSW) 23:19:21 435.000
POPSAT HIP 1 27 Nov 23:18:49 23:21:09 14° 246° (WSW) 23:23:27 437.405
CUSAT 1 27 Nov 23:22:14 23:27:35 38° 268° (W) 23:31:36 437.405
RS-15 27 Nov 23:38:27 23:50:22 64° 124° (SE) 00:01:35 29.354- 29.394
JUGNU 27 Nov 23:38:42 23:42:35 18° 358° (N) 23:46:27 437.505
Oscar 19 27 Nov 23:46:23 23:50:24 22° 85° (E) 23:54:22 437.125/150
AUBIESAT-1 27 Nov 23:48:10 23:52:19 58° 286° (WNW) 23:56:10 437.475
SRMSAT 27 Nov 23:53:17 23:57:01 17° 5° (N) 00:00:45 437.500
M-CUBED/EXP-1 PRIME 27 Nov 23:55:01 23:59:04 43° 285° (WNW) 00:02:51 437.505
DANDE 27 Nov 23:57:35 00:02:02 22° 262° (W) 00:05:39 436.750
STARS 27 Nov 23:58:06 23:59:46 12° 116° (ESE) 00:01:27 437.465
MaSat-1 28 Nov 00:02:58 00:06:18 27° 286° (WNW) 00:09:29 437.345
ITUPSAT 1 28 Nov 00:06:04 00:10:49 70° 282° (WNW) 00:15:39 437.325
SWISSCUBE 28 Nov 00:16:23 00:21:00 48° 280° (W) 00:25:39 437.505
YUBILEINY 28 Nov 00:23:08 00:30:40 34° 95° (E) 00:38:16 435.215
KKS-1 28 Nov 00:39:58 00:44:21 54° 106° (ESE) 00:48:48 437.445
ITAMSAT 1 28 Nov 00:43:28 00:48:07 31° 83° (E) 00:52:42 435.822/435.867
BEESAT 28 Nov 00:47:54 00:51:46 24° 276° (W) 00:55:41 436.000
SO-50 28 Nov 01:01:08 01:04:49 22° 69° (ENE) 01:08:27 436.795
Oscar 19 28 Nov 01:25:02 01:29:47 37° 251° (WSW) 01:34:29 437.125/150
Gurwin Techsat 1B 28 Nov 01:27:28 01:32:40 48° 80° (E) 01:37:47 435.225
JUGNU 28 Nov 01:28:11 01:30:52 13° 348° (NNW) 01:33:31 437.505
STARS 28 Nov 01:31:19 01:35:42 57° 281° (W) 01:40:10 437.465
SRMSAT 28 Nov 01:41:44 01:45:29 17° 355° (N) 01:49:13 437.500
RS-15 28 Nov 01:52:03 02:01:54 33° 284° (WNW) 02:11:24 29.354- 29.394
HORYU 2 28 Nov 01:53:09 01:57:17 34° 82° (E) 02:01:20 437.375
MOZHAYETS 4 28 Nov 02:03:49 02:04:26 10° 116° (ESE) 02:05:04
YUBILEINY 28 Nov 02:18:55 02:27:08 45° 257° (WSW) 02:35:30 435.215
KKS-1 28 Nov 02:19:45 02:21:17 12° 272° (W) 02:22:49 437.445
PCSat 28 Nov 02:22:04 02:25:41 18° 130° (SE) 02:29:18 145.827
ITAMSAT 1 28 Nov 02:23:00 02:27:28 28° 248° (WSW) 02:31:53 435.822/435.867
BEESAT 2 28 Nov 02:31:40 02:32:46 11° 133° (SE) 02:33:53 435.950
SO-50 28 Nov 02:40:42 02:45:08 36° 235° (SW) 02:49:30 436.795
Gurwin Techsat 1B 28 Nov 03:08:30 03:12:12 19° 245° (WSW) 03:15:52 435.225
AIST 2 28 Nov 03:14:40 03:17:10 16° 130° (SE) 03:19:39 435.215
AO-7 28 Nov 03:17:50 03:26:10 68° 75° (ENE) 03:34:23 29.400- 29.500
HORYU 2 28 Nov 03:30:31 03:33:40 19° 247° (WSW) 03:36:48 437.375
SRMSAT 28 Nov 03:32:25 03:33:54 11° 345° (NNW) 03:35:23 437.500
MOZHAYETS 4 28 Nov 03:36:24 03:41:01 71° 281° (WNW) 03:45:41
ISS 28 Nov 03:37:21 03:40:00 21° 148° (SSE) 03:42:37 145.825
JAS-2 28 Nov 03:41:22 03:47:06 36° 81° (E) 03:53:25 435.910
O/OREOS (USA 219) 28 Nov 03:45:14 03:49:17 32° 77° (ENE) 03:53:24 437.305
BEESAT 3 28 Nov 03:50:08 03:54:08 87° 118° (ESE) 03:58:07 437.485
PRISM 28 Nov 04:00:58 04:04:47 35° 108° (ESE) 04:08:38 437.425
PCSat 28 Nov 04:04:09 04:09:31 61° 293° (WNW) 04:14:50 145.827
BEESAT 2 28 Nov 04:07:29 04:11:26 64° 297° (WNW) 04:15:24 435.950
CUTE-I 28 Nov 04:21:06 04:24:36 17° 87° (E) 04:28:05 437.470
AIST 1 28 Nov 04:31:51 04:33:53 13° 107° (ESE) 04:35:54
AIST 2 28 Nov 04:52:05 04:55:58 43° 295° (WNW) 04:59:51 435.215
STRAND 1 28 Nov 05:11:01 05:16:07 79° 105° (ESE) 05:21:18 437.568
AO-7 28 Nov 05:11:51 05:18:12 25° 238° (WSW) 05:24:33 29.400- 29.500
ISS 28 Nov 05:13:34 05:16:45 39° 312° (NW) 05:19:54 145.825
Cubesat XI-IV 28 Nov 05:18:46 05:24:11 67° 78° (ENE) 05:29:33 437.490
CUBESAT XI-V 28 Nov 05:24:09 05:28:45 72° 281° (WNW) 05:33:25 437.345
O/OREOS (USA 219) 28 Nov 05:25:13 05:28:43 21° 241° (WSW) 05:32:16 437.305
JAS-2 28 Nov 05:26:34 05:32:02 34° 250° (WSW) 05:38:03 435.910
PRISM 28 Nov 05:37:59 05:40:26 15° 274° (W) 05:42:53 437.425
CUTE-I 28 Nov 05:59:39 06:04:54 51° 252° (WSW) 06:10:06 437.470
AIST 1 28 Nov 06:07:35 06:11:45 43° 272° (W) 06:15:53
GONETS M04 28 Nov 06:13:29 06:21:18 39° 93° (E) 06:29:08
BRITE-PL 28 Nov 06:52:59 06:56:30 17° 89° (E) 06:59:55 437.365/2234.400
CUTE 1.7 + AOD 2 28 Nov 06:54:35 06:54:42 10° 89° (E) 06:54:49 437.475
Cubesat XI-IV 28 Nov 07:00:50 07:03:38 14° 243° (WSW) 07:06:26 437.490
HO-68 28 Nov 07:01:15 07:06:53 24° 85° (E) 07:12:27 435.675
SEEDS 28 Nov 07:21:46 07:24:55 20° 85° (E) 07:28:01 437.485
AAUSAT CUBESAT 2 28 Nov 07:33:43 07:36:51 20° 85° (E) 07:39:56 437.432
Oscar 11 28 Nov 07:38:47 07:39:45 11° 89° (E) 07:40:42 145.826/435.025
ANTELSAT 28 Nov 07:43:39 07:44:54 11° 116° (ESE) 07:46:08 437.575/2403.000
GOMX 1 28 Nov 07:49:10 07:54:25 42° 83° (E) 07:59:23 467.674
COMPASS 1 28 Nov 07:50:04 07:54:00 36° 82° (E) 07:57:52 437.405
CANX-2 28 Nov 07:52:20 07:56:37 62° 80° (E) 08:00:49 2200.000
DX 1 28 Nov 08:05:12 08:08:31 20° 85° (E) 08:11:48 434.975-435.025
UWE-3 28 Nov 08:07:29 08:09:34 13° 89° (E) 08:11:37 435.000/436.395/437.385
QB50P1 28 Nov 08:08:46 08:10:30 12° 115° (ESE) 08:12:14 145.935-145.965
GONETS M04 28 Nov 08:09:55 08:17:57 40° 256° (WSW) 08:26:03
CUBEBUG 2 28 Nov 08:11:28 08:14:36 18° 87° (E) 08:17:38 437.445
CUTE 1.7 + AOD 2 28 Nov 08:26:44 08:30:57 54° 255° (WSW) 08:35:05 437.475
BRITE-PL 28 Nov 08:29:39 08:35:20 59° 254° (WSW) 08:40:46 437.365/2234.400
POPSAT HIP 1 28 Nov 08:32:03 08:35:25 23° 111° (ESE) 08:38:50 437.405
TIGRISAT 28 Nov 08:32:37 08:36:57 37° 108° (ESE) 08:41:21 435.000
DOVE 4 28 Nov 08:33:47 08:39:10 89° 79° (E) 08:44:14 437.250
ZACube-1 28 Nov 08:35:45 08:39:23 23° 85° (E) 08:42:54 437.345
VELOX 1 28 Nov 08:45:58 08:49:03 18° 86° (E) 08:52:07 145.980
UNISAT 6 28 Nov 08:47:20 08:51:58 55° 106° (ESE) 08:56:39 437.425
HO-68 28 Nov 08:47:50 08:54:51 56° 250° (WSW) 09:01:49 435.675
CINEMA 3 28 Nov 08:51:56 08:56:58 84° 78° (ENE) 09:01:43 145.822/145.860
SEEDS 28 Nov 08:57:04 09:00:43 28° 251° (WSW) 09:04:19 437.485
DELFI C3 28 Nov 09:01:06 09:05:15 84° 257° (WSW) 09:09:19 145.870
UKube-1 28 Nov 09:02:18 09:06:45 86° 256° (WSW) 09:11:09 .
POLYITAN 1 28 Nov 09:06:08 09:10:22 59° 105° (ESE) 09:14:41 437.675
QB50P2 28 Nov 09:07:09 09:11:23 61° 105° (ESE) 09:15:41 145.880/145.840
50 SAT 28 Nov 09:08:18 09:11:47 25° 84° (E) 09:15:11 437.505
AAUSAT CUBESAT 2 28 Nov 09:08:54 09:12:29 27° 251° (WSW) 09:16:02 437.432
FUNcube-1 28 Nov 09:09:25 09:13:55 57° 80° (E) 09:18:15 145.935
DUCHIFAT 1 28 Nov 09:11:30 09:15:44 67° 104° (ESE) 09:20:04 145.980
Oscar 11 28 Nov 09:11:56 09:16:13 54° 255° (WSW) 09:20:26 145.826/435.025
AISAT 28 Nov 09:12:50 09:17:05 37° 82° (E) 09:21:17 437.250
ANTELSAT 28 Nov 09:16:17 09:21:01 71° 281° (WNW) 09:25:50 437.575/2403.000
CUBEBUG 1 28 Nov 09:17:59 09:20:19 14° 87° (E) 09:22:38 437.445
COMPASS 1 28 Nov 09:26:51 09:29:24 16° 248° (WSW) 09:31:56 437.405
GOMX 1 28 Nov 09:27:56 09:32:08 23° 247° (WSW) 09:36:12 467.674
NANOSAT C BR1 28 Nov 09:31:20 09:35:36 69° 281° (WNW) 09:39:57 145.865
HUMSAT D 28 Nov 09:35:42 09:40:04 69° 79° (E) 09:44:17 437.325/437.525
BUGSAT 1 28 Nov 09:39:10 09:43:13 67° 281° (WNW) 09:47:22 437.445
DX 1 28 Nov 09:40:51 09:44:45 30° 251° (WSW) 09:48:37 434.975-435.025
DANDE 28 Nov 09:41:30 09:43:52 11° 103° (ESE) 09:46:15 436.750
QB50P1 28 Nov 09:41:43 09:45:53 51° 280° (W) 09:50:08 145.935-145.965
UWE-3 28 Nov 09:41:54 09:46:24 49° 254° (WSW) 09:50:43 435.000/436.395/437.385
CUBEBUG 2 28 Nov 09:47:03 09:51:25 38° 252° (WSW) 09:55:37 437.445
POPSAT HIP 1 28 Nov 10:07:36 10:11:10 26° 276° (W) 10:14:49 437.405
TIGRISAT 28 Nov 10:10:23 10:13:45 19° 274° (W) 10:17:11 435.000
ZACube-1 28 Nov 10:11:50 10:15:41 27° 250° (WSW) 10:19:24 437.345
TISAT 1 28 Nov 10:14:02 10:16:21 14° 87° (E) 10:18:39 437.305
DOVE 4 28 Nov 10:15:22 10:16:00 10° 241° (WSW) 10:16:39 437.250
VELOX 1 28 Nov 10:21:33 10:25:43 36° 252° (WSW) 10:29:50 145.980
UNISAT 6 28 Nov 10:26:54 10:29:02 13° 272° (W) 10:31:11 437.425
ESTCUBE 1 28 Nov 10:28:52 10:33:28 83° 256° (WSW) 10:38:01 437.505/2401.250
SPROUT 28 Nov 10:31:00 10:34:16 20° 85° (E) 10:37:30 437.525
VERMONT LUNAR 28 Nov 10:35:30 10:37:14 13° 39° (NE) 10:38:59 437.305
YUBILEINY 28 Nov 10:39:21 10:43:09 13° 116° (ESE) 10:46:56 435.215
CUSAT 1 28 Nov 10:41:26 10:49:00 42° 91° (E) 10:56:53 437.405
50 SAT 28 Nov 10:43:42 10:46:55 22° 250° (WSW) 10:50:06 437.505
FUNcube-1 28 Nov 10:48:01 10:49:41 12° 244° (WSW) 10:51:19 145.935
AISAT 28 Nov 10:50:18 10:53:24 18° 247° (WSW) 10:56:29 437.250
CUBEBUG 1 28 Nov 10:52:34 10:56:52 45° 253° (WSW) 11:01:08 437.445
Oscar 19 28 Nov 11:00:07 11:04:15 24° 112° (ESE) 11:08:25 437.125/150
SO-50 28 Nov 11:15:13 11:19:41 82° 120° (ESE) 11:24:04 436.795
DANDE 28 Nov 11:17:40 11:25:46 67° 86° (E) 11:34:29 436.750
M-CUBED/EXP-1 PRIME 28 Nov 11:42:20 11:44:08 14° 80° (E) 11:45:58 437.505
TISAT 1 28 Nov 11:48:14 11:52:21 41° 253° (WSW) 11:56:25 437.305
ITAMSAT 1 28 Nov 11:58:19 12:02:56 34° 110° (ESE) 12:07:36 435.822/435.867
SPROUT 28 Nov 12:06:30 12:10:20 30° 251° (WSW) 12:14:09 437.525
ITUPSAT 1 28 Nov 12:10:23 12:14:57 40° 81° (E) 12:19:27 437.325
PHONESAT 2.4 28 Nov 12:11:18 12:14:53 50° 29° (NNE) 12:18:29 2401.200-2431.200
VERMONT LUNAR 28 Nov 12:11:40 12:15:17 73° 26° (NNE) 12:18:54 437.305
SWISSCUBE 28 Nov 12:20:07 12:24:54 57° 79° (E) 12:29:37 437.505
CUSAT 1 28 Nov 12:24:23 12:32:06 42° 254° (WSW) 12:40:06 437.405
AO-7 28 Nov 12:26:27 12:29:49 13° 129° (SE) 12:33:10 29.400- 29.500
YUBILEINY 28 Nov 12:32:28 12:41:25 79° 97° (E) 12:50:15 435.215
KKS-1 28 Nov 12:36:23 12:38:47 14° 87° (E) 12:41:10 437.445
Oscar 19 28 Nov 12:38:36 12:43:21 35° 278° (W) 12:48:09 437.125/150
Gurwin Techsat 1B 28 Nov 12:45:12 12:50:22 55° 107° (ESE) 12:55:37 435.225
HORYU 2 28 Nov 12:49:04 12:52:36 23° 111° (ESE) 12:56:11 437.375
BEESAT 28 Nov 12:50:36 12:55:26 73° 255° (WSW) 13:00:12 436.000
DANDE 28 Nov 13:03:03 13:09:54 27° 249° (WSW) 13:17:02 436.750
AUBIESAT-1 28 Nov 13:08:57 13:12:05 35° 249° (WSW) 13:15:18 437.475
M-CUBED/EXP-1 PRIME 28 Nov 13:16:24 13:19:15 25° 248° (WSW) 13:22:09 437.505
STARS 28 Nov 13:25:07 13:29:14 34° 82° (E) 13:33:17 437.465
MaSat-1 28 Nov 13:26:27 13:29:39 63° 245° (WSW) 13:33:12 437.345
ITAMSAT 1 28 Nov 13:38:11 13:42:24 25° 276° (W) 13:46:40 435.822/435.867
ITUPSAT 1 28 Nov 13:49:08 13:52:30 19° 247° (WSW) 13:55:51 437.325
PHONESAT 2.4 28 Nov 13:50:10 13:53:44 45° 193° (SSW) 13:57:18 2401.200-2431.200
VERMONT LUNAR 28 Nov 13:50:31 13:53:55 38° 190° (S) 13:57:20 437.305
RS-15 28 Nov 13:55:52 14:07:32 57° 70° (ENE) 14:19:24 29.354- 29.394
O/OREOS (USA 219) 28 Nov 13:58:14 14:02:33 36° 115° (ESE) 14:06:47 437.305
SWISSCUBE 28 Nov 13:59:51 14:02:13 14° 244° (WSW) 14:04:35 437.505
KKS-1 28 Nov 14:11:16 14:15:37 45° 253° (WSW) 14:19:55 437.445
AO-7 28 Nov 14:12:46 14:21:02 68° 111° (ESE) 14:29:21 29.400- 29.500
HORYU 2 28 Nov 14:25:09 14:29:05 29° 277° (W) 14:33:05 437.375
Gurwin Techsat 1B 28 Nov 14:27:31 14:30:37 16° 272° (W) 14:33:46 435.225
YUBILEINY 28 Nov 14:31:35 14:37:05 18° 260° (W) 14:42:35 435.215
STARS 28 Nov 15:02:15 15:05:26 19° 248° (WSW) 15:08:36 437.465
